FW9881 Weather Reports


time (UTC)temp
C
wind
direction
speed
KPH
gust
KPH
rain 1hr
cm
rain 24hr
cm
rain mn
cm
humidity
%
barometer
mb
20260905170928 22 180 3.2 6.4 0.00 0.00 0.00 61 1013.5
20260905165943 22 360 0.0 0.0 0.00 0.00 0.00 63 1013.5
20260905165828 21 360 0.0 0.0 0.00 0.00 0.00 62 1013.6
20260905164844 21 180 0.0 3.2 0.00 0.00 0.00 64 1013.6
20260905164728 21 180 0.0 3.2 0.00 0.00 0.00 64 1013.6
20260905163826 21 261 0.0 1.6 0.00 0.00 0.00 65 1013.9
20260905163743 21 340 0.0 3.2 0.00 0.00 0.00 65 1013.8
20260905162827 21 360 0.0 1.6 0.00 0.00 0.00 63 1013.9
20260905160829 21 180 1.6 3.2 0.00 0.00 0.00 68 1013.9
20260905155828 20 180 1.6 4.8 0.00 0.00 0.00 69 1014.0
20260905154829 20 180 0.0 1.6 0.00 0.00 0.00 67 1014.1
20260905153927 20 22 1.6 3.2 0.00 0.00 0.00 68 1014.0
20260905152926 21 180 0.0 3.2 0.00 0.00 0.00 67 1014.1
20260905150926 21 357 0.0 3.2 0.00 0.00 0.00 66 1014.1
20260905145926 21 323 4.8 9.7 0.00 0.00 0.00 68 1013.9
20260905144928 20 337 4.8 8.0 0.00 0.00 0.00 69 1014.1
20260905143926 20 331 6.4 16.1 0.00 0.00 0.00 70 1014.1
20260905142927 20 341 1.6 4.8 0.00 0.00 0.00 73 1014.3
20260905141928 20 8 0.0 3.2 0.00 0.00 0.00 73 1014.2
20260905140926 20 337 3.2 4.8 0.00 0.00 0.00 72 1014.1
20260905140827 20 337 3.2 4.8 0.00 0.00 0.00 73 1014.2
20260905140728 20 345 3.2 6.4 0.00 0.00 0.00 72 1014.3
20260905135727 20 334 1.6 4.8 0.00 0.00 0.00 76 1014.2
20260905134825 18 305 0.0 4.8 0.00 0.00 0.00 77 1014.4
20260905133826 18 337 0.0 1.6 0.00 0.00 0.00 78 1014.3
20260905132825 18 8 0.0 1.6 0.00 0.00 0.00 79 1014.3
20260905130928 18 16 3.2 6.4 0.00 0.00 0.00 79 1014.0
20260905125943 18 92 3.2 6.4 0.00 0.00 0.00 81 1014.0
20260905125940 18 354 4.8 8.0 0.00 0.00 0.00 82 1014.1
20260905124030 17 354 6.4 9.7 0.00 0.00 0.00 83 1013.7
20260905120227 16 336 6.4 17.7 0.00 0.00 0.00 87 1013.7
20260905115228 16 332 4.8 9.7 0.00 0.00 0.00 89 1013.8
20260905115127 16 344 6.4 9.7 0.00 0.00 0.00 89 1013.8
20260905114130 15 360 1.6 3.2 0.00 0.00 0.00 90 1013.8
20260905113029 15 337 3.2 8.0 0.00 0.00 0.00 90 1013.8
20260905112042 15 336 1.6 3.2 0.00 0.00 0.00 88 1013.8
20260905110126 14 337 0.0 3.2 0.00 0.00 0.00 89 1013.7
20260905105126 14 337 0.0 3.2 0.00 0.00 0.00 89 1013.5
20260905105026 14 1 0.0 3.2 0.00 0.00 0.00 88 1013.5
20260905104027 13 292 0.0 0.0 0.00 0.00 0.00 89 1013.5
20260905103925 13 292 1.6 4.8 0.00 0.00 0.00 89 1013.5
20260905103830 13 292 1.6 3.2 0.00 0.00 0.00 89 1013.6
20260905102927 14 202 0.0 0.0 0.00 0.00 0.00 89 1013.7
20260905101025 14 202 0.0 1.6 0.00 0.00 0.00 88 1013.6
20260905100930 14 202 0.0 0.0 0.00 0.00 0.00 88 1013.6
20260905094927 14 270 0.0 0.0 0.00 0.00 0.00 88 1013.4
20260905093927 13 247 0.0 1.6 0.00 0.00 0.00 88 1013.3
20260905093026 13 180 0.0 0.0 0.00 0.00 0.00 87 1013.3
20260905092028 13 180 0.0 0.0 0.00 0.00 0.00 87 1013.2
20260905091026 13 315 0.0 0.0 0.00 0.00 0.00 88 1013.2
20260905090042 13 315 0.0 0.0 0.00 0.00 0.00 88 1013.2
20260905085125 13 315 0.0 0.0 0.00 0.00 0.00 87 1013.0
20260905084126 13 315 0.0 0.0 0.00 0.00 0.00 89 1013.2
20260905083128 13 315 0.0 0.0 0.00 0.00 0.00 89 1013.2
20260905083027 13 315 0.0 0.0 0.00 0.00 0.00 89 1013.2
20260905082029 13 315 0.0 0.0 0.00 0.00 0.00 89 1013.2
20260905081028 13 315 0.0 0.0 0.00 0.00 0.00 89 1013.2
20260905075927 13 315 0.0 0.0 0.00 0.00 0.00 88 1013.2
20260905075025 13 315 0.0 0.0 0.00 0.00 0.00 90 1013.2
20260905074027 13 315 0.0 0.0 0.00 0.00 0.00 89 1013.4
20260905073926 13 315 0.0 0.0 0.00 0.00 0.00 90 1013.3
20260905072928 14 315 0.0 0.0 0.00 0.00 0.00 89 1013.3
20260905070225 15 315 0.0 0.0 0.00 0.00 0.00 89 1013.4
20260905070126 15 315 0.0 0.0 0.00 0.00 0.00 89 1013.5
20260905065127 15 315 0.0 0.0 0.00 0.00 0.00 89 1013.6
20260905064225 15 315 0.0 0.0 0.00 0.00 0.00 90 1013.7
20260905064126 15 315 0.0 0.0 0.00 0.00 0.00 90 1013.7
20260905063028 15 315 0.0 0.0 0.00 0.00 0.00 89 1013.6
20260905062025 15 306 1.6 1.6 0.00 0.00 0.00 88 1013.7
20260905061026 15 292 0.0 0.0 0.00 0.00 0.00 88 1013.7
20260905060027 15 292 0.0 0.0 0.00 0.00 0.00 89 1013.7
20260905055125 15 292 0.0 0.0 0.00 0.00 0.00 88 1013.8
20260905055027 15 292 0.0 0.0 0.00 0.00 0.00 89 1013.7
20260905054026 15 292 0.0 0.0 0.00 0.00 0.00 90 1013.9
20260905053027 15 292 0.0 0.0 0.00 0.00 0.00 89 1013.9
20260905051128 15 292 0.0 0.0 0.00 0.00 0.00 89 1014.0
20260905050225 15 292 0.0 0.0 0.00 0.00 0.00 88 1014.1
20260905045227 15 292 0.0 0.0 0.00 0.00 0.00 89 1014.1
20260905045128 15 292 0.0 0.0 0.00 0.00 0.00 89 1014.1
20260905044125 15 292 0.0 0.0 0.00 0.00 0.00 89 1014.0
20260905044027 15 292 0.0 0.0 0.00 0.00 0.00 89 1013.9
20260905043027 15 292 0.0 0.0 0.00 0.00 0.00 89 1014.0
20260905042925 15 292 0.0 1.6 0.00 0.00 0.00 89 1014.0
20260905041940 15 315 0.0 0.0 0.00 0.00 0.00 89 1013.9
20260905041827 15 315 0.0 0.0 0.00 0.00 0.00 89 1013.9
20260905040826 15 277 1.6 3.2 0.00 0.00 0.00 88 1013.8
20260905035827 15 247 0.0 0.0 0.00 0.00 0.00 88 1013.8
20260905032727 16 247 0.0 1.6 0.00 0.00 0.00 85 1013.7
20260905031743 16 202 0.0 0.0 0.00 0.00 0.00 86 1013.7
20260905030726 16 292 0.0 0.0 0.00 0.00 0.00 85 1013.7
20260905025727 16 292 0.0 0.0 0.00 0.00 0.00 86 1013.7
20260905024726 16 292 0.0 0.0 0.00 0.00 0.00 87 1013.9
20260905023825 16 310 1.6 4.8 0.00 0.00 0.00 87 1013.9
20260905022827 16 337 0.0 0.0 0.00 0.00 0.00 87 1014.1
20260905021842 16 337 0.0 0.0 0.00 0.00 0.00 87 1014.1
20260905021726 16 337 0.0 0.0 0.00 0.00 0.00 87 1014.1
20260905020726 16 337 0.0 0.0 0.00 0.00 0.00 86 1014.2
20260905020625 16 337 0.0 0.0 0.00 0.00 0.00 87 1014.3
20260905015626 16 337 0.0 0.0 0.00 0.00 0.00 87 1014.3
20260905014726 16 337 0.0 0.0 0.00 0.00 0.00 85 1014.4
20260905013825 16 337 0.0 0.0 0.00 0.00 0.00 85 1014.4
20260905013726 16 337 0.0 0.0 0.00 0.00 0.00 85 1014.4
20260905012825 16 337 0.0 0.0 0.00 0.00 0.00 85 1014.5
20260905011825 16 337 0.0 0.0 0.00 0.00 0.00 84 1014.4
20260905010841 17 337 0.0 0.0 0.00 0.00 0.00 82 1014.3
20260905010725 17 337 0.0 0.0 0.00 0.00 0.00 82 1014.3
20260905005726 17 337 0.0 0.0 0.00 0.00 0.00 81 1014.1
20260905005625 17 337 0.0 0.0 0.00 0.00 0.00 80 1014.2
20260905004627 17 337 0.0 0.0 0.00 0.00 0.00 80 1014.3
20260905003628 18 337 0.0 0.0 0.00 0.00 0.00 78 1014.3
20260905002626 18 337 0.0 0.0 0.00 0.00 0.00 77 1014.1
20260905000627 19 315 3.2 4.8 0.00 0.00 0.00 76 1013.9
20260904235628 19 337 3.2 4.8 0.00 0.00 0.00 77 1013.9
20260904235525 19 337 3.2 4.8 0.00 0.00 0.00 77 1013.9
20260904234527 19 337 1.6 6.4 0.00 0.00 0.00 77 1013.8
20260904233426 19 270 0.0 0.0 0.00 0.00 0.00 74 1013.8
20260904232427 20 337 0.0 0.0 0.00 0.00 0.00 73 1013.7
20260904230426 21 337 0.0 0.0 0.00 0.00 0.00 67 1013.4
20260904225425 21 337 0.0 0.0 0.00 0.00 0.00 65 1013.3
20260904225325 21 337 0.0 1.6 0.00 0.00 0.00 64 1013.2
20260904224343 22 337 3.2 4.8 0.00 0.00 0.00 61 1013.3
20260904223427 22 337 3.2 4.8 0.00 0.00 0.00 60 1013.0
20260904222525 23 277 0.0 1.6 0.00 0.00 0.00 58 1012.9
20260904221527 23 337 0.0 1.6 0.00 0.00 0.00 57 1012.9
20260904220527 24 333 1.6 4.8 0.00 0.00 0.00 56 1012.9
20260904215624 24 318 3.2 8.0 0.00 0.00 0.00 56 1012.9
20260904215526 24 337 1.6 4.8 0.00 0.00 0.00 56 1013.0
20260904213626 25 349 3.2 4.8 0.00 0.00 0.00 55 1012.8
20260904212725 25 258 8.0 16.1 0.00 0.00 0.00 54 1012.8
20260904212627 25 308 1.6 8.0 0.00 0.00 0.00 53 1012.8
20260904212525 25 279 6.4 11.3 0.00 0.00 0.00 53 1012.8
20260904211527 25 259 6.4 9.7 0.00 0.00 0.00 52 1012.6
20260904210526 25 341 3.2 6.4 0.00 0.00 0.00 52 1012.8
20260904210427 25 352 1.6 6.4 0.00 0.00 0.00 51 1012.8
20260904205524 25 337 1.6 4.8 0.00 0.00 0.00 51 1012.7
20260904204526 25 337 3.2 4.8 0.00 0.00 0.00 50 1012.7
20260904202428 26 328 0.0 4.8 0.00 0.00 0.00 51 1012.6
20260904201525 25 319 6.4 9.7 0.00 0.00 0.00 52 1012.6
20260904201425 25 355 6.4 12.9 0.00 0.00 0.00 51 1012.5
20260904200427 26 343 4.8 8.0 0.00 0.00 0.00 49 1012.6
20260904200328 26 337 3.2 6.4 0.00 0.00 0.00 50 1012.6
20260904195325 26 322 1.6 6.4 0.00 0.00 0.00 50 1012.6
20260904192325 26 2 3.2 6.4 0.00 0.00 0.00 51 1012.6
20260904191324 26 263 1.6 6.4 0.00 0.00 0.00 51 1012.7
20260904190326 25 305 1.6 3.2 0.00 0.00 0.00 52 1012.6
20260904185326 25 265 8.0 11.3 0.00 0.00 0.00 54 1012.6
20260904185240 25 261 6.4 16.1 0.00 0.00 0.00 54 1012.6
20260904184325 25 305 0.0 0.0 0.00 0.00 0.00 57 1012.8
20260904183326 25 326 3.2 6.4 0.00 0.00 0.00 56 1012.9
20260904182425 25 355 4.8 11.3 0.00 0.00 0.00 55 1013.2
20260904181427 25 252 8.0 12.9 0.00 0.00 0.00 59 1013.2
20260904180426 24 337 3.2 6.4 0.00 0.00 0.00 58 1013.2
20260904175426 25 276 8.0 14.5 0.00 0.00 0.00 56 1013.0
20260904174426 25 256 8.0 16.1 0.00 0.00 0.00 55 1012.7
20260904173524 25 244 1.6 4.8 0.00 0.00 0.00 54 1012.8
20260904172527 25 348 4.8 9.7 0.00 0.00 0.00 52 1013.0
20260904172425 25 327 3.2 9.7 0.00 0.00 0.00 53 1013.0